Simultaneous Nadir Overpasses (SNOs) Predictions

Prediction of SNOs between GOES-16 and NOAA-19 Satellite Orbit:

Table of predicted SNOs for the next 14.0 days since TLE Epoch: 6/14/2024
Index Date Time (GOES-16) GOES-16 Lat,Lon NOAA-19 Lat,Lon Distance(km) Time Diff (sec)
1 06/15/2024 02:31:01 -0.05, -75.20 -0.93, -78.94 427.04 80
2 06/16/2024 02:18:44 -0.05, -75.20 -0.24, -75.95 85.56 80
3 06/17/2024 02:09:06 -0.05, -75.21 0.44, -72.96 256.12 80
4 06/19/2024 14:25:55 0.04, -75.23 0.60, -77.60 271.40 80
5 06/20/2024 14:16:18 0.04, -75.23 -0.08, -74.61 70.32 80
6 06/21/2024 14:04:00 0.04, -75.24 -0.77, -71.62 412.01 80
7 06/23/2024 02:35:45 -0.03, -75.25 -0.96, -79.25 456.81 80
8 06/24/2024 02:23:27 -0.03, -75.25 -0.27, -76.26 114.90 80
9 06/25/2024 02:08:30 -0.03, -75.26 0.43, -73.27 227.19 80
10 06/27/2024 14:27:57 0.02, -75.30 0.65, -77.91 298.41 80
11 06/28/2024 14:18:20 0.02, -75.31 -0.06, -74.92 44.47 80
